{"data":{"norad_id":64711,"epoch":"2026-05-25T05:06:37.476000Z","epoch_age_seconds":56898,"freshness":"FRESH","line1":"1 64711U 25142R   26145.21293375  .00002919  00000+0  25231-3 0  9999","line2":"2 64711  69.9999 121.4908 0003980 261.7165  98.3543 14.98335623 51119","mean_motion":14.98335623,"eccentricity":0.000398,"inclination_deg":69.9999,"raan_deg":121.4908,"arg_perigee_deg":261.7165,"mean_anomaly_deg":98.3543,"bstar":0.00025231,"rev_number":5111,"period_min":96.106638452392,"perigee_km":569.27233248521,"apogee_km":574.80467218507,"semimajor_km":6950.1755023351,"source":"CELESTRAK","updated_at":"2026-05-25T13:38:20.515077Z"}}